[[{"header":{"parameterUnit":"m.s-1","parameterCategory":1,"la1":30.2991,"la2":30.254,"lo1":-89.0895,"lo2":-89.0444,"dy":0.0017,"dx":0.0017,"nx":28,"ny":28,"refTime":"2023-11-17T09:00:00:Z","depth":0,"parameterNumber":2,"parameterNumberName":"U-component_of_WINDS"},"data":[0,0,0,0,0,0,0,0,0,0,0,0,0,0,0,0,0,0,0,0,0,0,0,0,0,0,0,0,0,0,0,0,0,0,0,0,0,0,0,0,0,0,0,0,0,0,0,0,0,0,0,0,0,0,0,0,0,0,1.2174,1.2176,0,1.2289,1.229,1.2291,1.2274,1.2272,1.227,1.2268,1.239,1.2395,1.24,0,0,0,0,0,0,0,0,0,0,0,0,0,1.1945,1.1949,1.2174,1.2176,1.2177,1.2288,1.229,1.2292,1.2274,1.2272,1.227,1.2267,1.2388,1.2394,1.24,0,0,0,0,0,0,0,0,0,0,0,0,0,1.2051,1.1951,1.2174,1.2182,1.2184,1.2288,1.229,1.2292,1.2275,1.2272,1.2269,1.2266,1.2386,1.2394,1.2401,1.2506,0,0,1.2424,1.2428,0,0,0,0,0,0,0,0,1.2045,1.2059,1.2179,1.2181,1.2184,1.2264,1.2254,1.2364,1.2276,1.224,1.2268,1.2265,1.2351,1.2361,1.2389,1.2512,1.2517,1.2425,1.2429,1.2433,1.2435,0,0,0,0,0,0,0,1.2037,1.2054,1.222,1.2181,1.2184,1.2181,1.2193,1.2275,1.2311,1.2243,1.2242,1.2256,1.2351,1.2382,1.2392,1.2519,1.2425,1.2431,1.2436,1.2439,1.2734,1.2737,0,0,0,0,0,0,1.2027,1.2048,1.2216,1.2223,1.2105,1.2187,1.2201,1.2241,1.231,1.2317,1.2258,1.2254,1.237,1.2383,1.2396,1.2523,1.2433,1.244,1.2444,1.273,1.2734,1.2738,0,0,0,0,0,0,1.2022,1.2042,1.2211,1.2135,1.2157,1.2194,1.224,1.2245,1.2275,1.2321,1.2328,1.2282,1.2368,1.2385,1.2478,1.2527,1.2443,1.245,1.2727,1.2732,1.2736,1.2777,0,0,0,0,0,0,1.2016,1.2041,1.208,1.2136,1.2161,1.2291,1.2243,1.2249,1.2288,1.2284,1.2345,1.2353,1.2367,1.2467,1.2486,1.2536,1.2456,1.2722,1.2729,1.2735,1.2772,1.2783,1.2793,0,0,0,0,0,1.2008,1.2089,1.2082,1.2103,1.2211,1.2294,1.2308,1.2322,1.2292,1.2332,1.2361,1.2351,1.2519,1.2477,1.2498,1.255,1.2719,1.2727,1.2734,1.2767,1.2781,1.2793,0,0,0,0,0,0,1.2039,1.2096,1.209,1.2191,1.2237,1.2291,1.2342,1.2336,1.2393,1.2388,1.2404,1.2418,1.2512,1.2541,1.2494,1.2656,1.2615,1.2627,1.2633,1.2646,1.2657,1.2647,1.2462,0,0,0,0,0,1.2057,1.2119,1.2166,1.2251,1.2274,1.2304,1.2341,1.2347,1.2397,1.2417,1.2453,1.2503,1.2567,1.2608,1.267,1.2777,1.2789,1.2823,1.2834,1.2842,1.2852,1.2909,1.2925,1.2762,1.2762,1.2762,0,0,1.2096,1.2135,1.2173,1.2258,1.2294,1.2358,1.2321,1.2391,1.2438,1.2428,1.2517,1.2546,1.2603,1.2703,1.2749,1.273,1.29,1.2851,1.2858,1.2863,1.2919,1.2934,1.2948,1.2767,1.2766,1.2765,0,0,1.22,1.2235,1.2309,1.2346,1.2402,1.2421,1.2439,1.2493,1.2511,1.2601,1.2594,1.2652,1.2762,1.2802,1.2837,1.2956,1.2948,1.2976,1.303,1.3086,1.3098,1.311,1.3151,1.3166,1.2985,1.2986,1.2986,0,1.2241,1.2336,1.2348,1.2418,1.2455,1.2448,1.2523,1.2559,1.2633,1.2659,1.2637,1.2773,1.2811,1.292,1.2949,1.2978,1.2999,1.2968,1.3095,1.3107,1.3118,1.3157,1.3173,1.2988,1.2988,1.2988,1.2988,0,1.2384,1.245,1.2503,1.2572,1.2616,1.2688,1.2712,1.2755,1.2759,1.2781,1.2872,1.2917,1.2987,1.3014,1.3018,1.3123,1.3109,1.3091,1.305,1.3136,1.3173,1.3189,1.2993,1.2992,1.2991,1.299,0,0,1.251,1.2584,1.2603,1.2633,1.2694,1.2746,1.2819,1.2885,1.2921,1.2973,1.3034,1.3127,1.311,1.3149,1.3159,1.3208,1.3298,1.3184,1.3185,1.3202,1.3416,1.3428,1.3445,1.3293,1.3296,1.3299,1.341,0,1.2617,1.2743,1.2756,1.2869,1.293,1.2923,1.2986,1.3031,1.3054,1.311,1.3136,1.3201,1.3174,1.3198,1.3247,1.3276,1.3341,1.3269,1.3351,1.3353,1.3335,1.3465,1.3478,1.3581,1.3425,1.3428,1.3429,0,1.276,1.2813,1.2931,1.2982,1.3009,1.3065,1.3126,1.318,1.3231,1.3244,1.3288,1.3291,1.3366,1.3323,1.3428,1.3379,1.3413,1.3433,1.3438,1.3445,1.3395,1.3474,1.3614,1.3629,1.3453,1.3451,1.3449,0,1.2837,1.2939,1.3022,1.3049,1.3112,1.3151,1.3179,1.3227,1.3266,1.3321,1.3347,1.341,1.3445,1.3495,1.3515,1.3482,1.3618,1.3577,1.3632,1.3631,1.3659,1.3657,1.3806,1.3684,1.3684,1.3684,1.3683,0,1.2956,1.3028,1.3058,1.3109,1.319,1.3205,1.3286,1.3312,1.3355,1.3412,1.3412,1.3466,1.349,1.3548,1.3564,1.3648,1.3664,1.3677,1.3681,1.3676,1.3675,1.3698,1.3691,1.3688,1.3687,1.3686,1.3685,0,1.3055,1.3078,1.3169,1.322,1.3235,1.3292,1.3336,1.3387,1.3409,1.3481,1.3499,1.3534,1.3603,1.3628,1.3712,1.3723,1.3819,1.3818,1.3801,1.3802,1.3854,1.3848,1.4022,1.4045,1.391,1.3911,1.3912,0,1.3128,1.3183,1.324,1.3277,1.3306,1.3367,1.3406,1.3424,1.3465,1.3527,1.357,1.3637,1.3692,1.3802,1.3836,1.39,1.3899,1.3955,1.3908,1.3902,1.3898,1.3894,1.3899,1.3963,1.3965,1.3966,1.3967,0,1.3255,1.3263,1.3319,1.3379,1.3425,1.3474,1.3521,1.3552,1.3577,1.3623,1.3692,1.3734,1.3819,1.3886,1.3952,1.3982,1.3979,1.3982,1.3997,1.3993,1.398,1.3986,1.3823,1.3977,1.3976,1.3975,1.3975,1.3974,1.3342,1.3391,1.3437,1.3499,1.3536,1.358,1.3629,1.3657,1.3714,1.3783,1.3791,1.3864,1.3915,1.4002,1.4036,1.4095,1.4079,1.4102,1.4108,1.4113,1.4116,1.3972,1.4107,1.4107,1.4106,1.4106,1.4106,0,1.3467,1.3497,1.3554,1.3619,1.3668,1.3659,1.3711,1.3753,1.3817,1.3863,1.3916,1.3996,1.4061,1.41,1.4165,1.4205,1.4205,1.4221,1.4218,1.4225,1.4127,1.4105,1.422,1.422,1.422,1.422,1.422,1.422,1.3538,1.3618,1.3633,1.3732,1.3762,1.3832,1.3862,1.3903,1.394,1.4027,1.4081,1.4105,1.4149,1.4218,1.4277,1.4287,1.4311,1.4328,1.4337,1.4244,1.4232,1.4221,1.4201,1.4334,1.4334,1.443,1.4431,1.4432]},{"header":{"parameterUnit":"m.s-1","parameterCategory":1,"la1":30.2991,"la2":30.254,"lo1":-89.0895,"lo2":-89.0444,"dy":0.0017,"dx":0.0017,"nx":28,"ny":28,"refTime":"2023-11-17T09:00:00:Z","depth":0,"parameterNumber":3,"parameterNumberName":"V-component_of_WINDS"},"data":[0,0,0,0,0,0,0,0,0,0,0,0,0,0,0,0,0,0,0,0,0,0,0,0,0,0,0,0,0,0,0,0,0,0,0,0,0,0,0,0,0,0,0,0,0,0,0,0,0,0,0,0,0,0,0,0,0,0,0.5766,0.5764,0,0.5574,0.5572,0.557,0.5408,0.5406,0.5404,0.5403,0.5205,0.5202,0.5198,0,0,0,0,0,0,0,0,0,0,0,0,0,0.5992,0.5989,0.5766,0.5764,0.5761,0.5574,0.5572,0.5569,0.5408,0.5406,0.5404,0.5402,0.5207,0.5202,0.5198,0,0,0,0,0,0,0,0,0,0,0,0,0,0.5857,0.5988,0.5767,0.5658,0.5647,0.5575,0.5572,0.5568,0.5408,0.5406,0.5403,0.5401,0.5208,0.5203,0.5197,0.5217,0,0,0.5181,0.5178,0,0,0,0,0,0,0,0,0.5864,0.5848,0.5677,0.5666,0.5653,0.5512,0.5579,0.5451,0.5409,0.5499,0.5402,0.5399,0.531,0.5296,0.5265,0.5208,0.5199,0.518,0.5177,0.5175,0.5173,0,0,0,0,0,0,0,0.5874,0.5856,0.569,0.5674,0.566,0.5619,0.5597,0.5554,0.5421,0.5491,0.5479,0.5458,0.5302,0.5271,0.526,0.5196,0.518,0.5176,0.5172,0.517,0.5143,0.5145,0,0,0,0,0,0,0.59,0.5865,0.5696,0.5684,0.5754,0.5617,0.5592,0.556,0.5421,0.5398,0.5461,0.5451,0.5282,0.5266,0.5252,0.5264,0.5175,0.517,0.5167,0.514,0.5143,0.5146,0,0,0,0,0,0,0.5906,0.5887,0.5704,0.5771,0.5745,0.5616,0.5581,0.5558,0.5526,0.5399,0.5374,0.5453,0.5279,0.526,0.5226,0.5255,0.5167,0.5162,0.5137,0.5141,0.5145,0.5289,0,0,0,0,0,0,0.5913,0.589,0.5896,0.5772,0.5742,0.5682,0.5583,0.5556,0.5517,0.5503,0.5385,0.5363,0.5275,0.5235,0.5221,0.5246,0.5158,0.5134,0.5139,0.5144,0.5282,0.5298,0.5312,0,0,0,0,0,0.5922,0.5945,0.5897,0.5878,0.5747,0.5684,0.5667,0.5566,0.552,0.5525,0.5443,0.5366,0.5255,0.5233,0.5216,0.5239,0.5132,0.5138,0.5143,0.5275,0.5295,0.5311,0,0,0,0,0,0,0.6075,0.5927,0.5872,0.5856,0.5784,0.5657,0.566,0.559,0.5529,0.5519,0.5396,0.5371,0.5351,0.5292,0.5271,0.525,0.5183,0.5185,0.5289,0.5307,0.5322,0.5335,0.5154,0,0,0,0,0,0.6107,0.6069,0.5941,0.5939,0.5906,0.579,0.5759,0.5687,0.5608,0.5576,0.5492,0.5417,0.5364,0.5333,0.5278,0.5273,0.5244,0.528,0.5296,0.5308,0.5311,0.5302,0.5317,0.5165,0.5165,0.5165,0,0,0.6173,0.6087,0.607,0.5968,0.5904,0.5866,0.5765,0.573,0.5701,0.5571,0.5533,0.547,0.5378,0.5359,0.5346,0.5309,0.5347,0.5316,0.5327,0.5322,0.531,0.5324,0.5337,0.5169,0.5168,0.5167,0,0,0.6273,0.6205,0.6195,0.6133,0.6036,0.5959,0.5957,0.584,0.5793,0.5754,0.5655,0.5618,0.5531,0.5469,0.5427,0.5503,0.543,0.5489,0.5567,0.556,0.5572,0.5582,0.5607,0.5618,0.5493,0.5493,0.5493,0,0.6366,0.6306,0.6199,0.6169,0.6126,0.6007,0.5996,0.594,0.5832,0.5805,0.5765,0.5652,0.5582,0.5546,0.5565,0.5535,0.5528,0.5501,0.5579,0.5588,0.5595,0.5618,0.5628,0.5501,0.55,0.5499,0.5498,0,0.6424,0.6384,0.6388,0.6285,0.6243,0.6223,0.6113,0.6083,0.6015,0.5942,0.5903,0.5816,0.574,0.5726,0.566,0.568,0.566,0.5602,0.5531,0.5619,0.5638,0.5646,0.5512,0.5509,0.5507,0.5505,0,0,0.6614,0.6453,0.6456,0.6407,0.6293,0.6259,0.6234,0.616,0.6136,0.6065,0.6039,0.5968,0.5913,0.5865,0.5791,0.5785,0.5849,0.5726,0.5722,0.575,0.5863,0.5907,0.5919,0.58,0.5802,0.5803,0.587,0,0.6694,0.664,0.6543,0.6521,0.6481,0.6368,0.6345,0.6272,0.6204,0.616,0.6083,0.6034,0.5966,0.5936,0.5925,0.5844,0.5869,0.5837,0.5773,0.5772,0.5798,0.5929,0.5974,0.6042,0.5877,0.5878,0.5879,0,0.6779,0.6715,0.6689,0.6575,0.6555,0.6537,0.646,0.642,0.6335,0.6285,0.6232,0.6151,0.6116,0.6054,0.6004,0.5985,0.5953,0.5909,0.5909,0.5897,0.583,0.5919,0.6062,0.6072,0.589,0.589,0.5889,0,0.6917,0.6824,0.6796,0.6758,0.6627,0.6616,0.656,0.6472,0.6434,0.6368,0.6341,0.6272,0.6234,0.6182,0.6084,0.6048,0.6044,0.5974,0.6001,0.6003,0.6003,0.6004,0.6141,0.5987,0.5987,0.5987,0.5987,0,0.7015,0.7003,0.6856,0.6839,0.6821,0.671,0.6696,0.663,0.6553,0.652,0.6419,0.639,0.6263,0.6219,0.6143,0.6112,0.6096,0.6054,0.6033,0.6062,0.6067,0.6037,0.6029,0.5989,0.5989,0.5988,0.5988,0,0.7166,0.7067,0.7028,0.6907,0.6876,0.6869,0.6764,0.6743,0.6668,0.6628,0.6612,0.6495,0.6438,0.6336,0.625,0.6198,0.6183,0.6149,0.6211,0.6198,0.623,0.6227,0.6351,0.6361,0.6204,0.6206,0.6207,0,0.7233,0.7221,0.7099,0.7069,0.7018,0.6972,0.6932,0.6822,0.6785,0.6687,0.6677,0.6612,0.6554,0.6468,0.6375,0.6309,0.6271,0.6319,0.626,0.6288,0.6269,0.627,0.6267,0.6332,0.6334,0.6336,0.6337,0,0.7363,0.7315,0.7261,0.7191,0.7146,0.7085,0.7019,0.7001,0.6876,0.6839,0.678,0.6735,0.6648,0.6584,0.6504,0.6446,0.637,0.6357,0.6359,0.6386,0.6422,0.6401,0.6245,0.6354,0.6352,0.6351,0.635,0.6349,0.7472,0.7455,0.7366,0.731,0.7249,0.7189,0.7163,0.7085,0.7034,0.6954,0.6892,0.6837,0.6751,0.6636,0.6583,0.6537,0.6502,0.6506,0.6506,0.6509,0.6519,0.6432,0.6523,0.6522,0.6522,0.6521,0.6521,0,0.7594,0.7531,0.7481,0.7391,0.7347,0.7281,0.7205,0.7172,0.7125,0.7051,0.6996,0.6928,0.6866,0.6768,0.6698,0.668,0.6644,0.6665,0.6664,0.6652,0.6555,0.656,0.6696,0.6696,0.6696,0.6696,0.6696,0.6696,0.7652,0.762,0.7562,0.7498,0.7435,0.738,0.7342,0.7287,0.7227,0.7155,0.7103,0.704,0.6956,0.6879,0.6819,0.6792,0.677,0.6802,0.6764,0.6675,0.6659,0.6643,0.6646,0.6799,0.6799,0.6863,0.6864,0.6864]}]]